When you browse on this site, cookies collect data to enhance your experience and personalize the content and advertising you see.
Visit our Privacy Policy to learn more. By continuing to use the site, you agree to this use of cookies and data.
  • In Lithuania
  • List of Countries
  • For 7 days
  • Water Temperature
  • Satellite Maps
  • Weather Map
  • Weather Widgets
  • user-avatar
    Login

    Hourly Weather Wagadugu

    Today, 27 May, Monday

    Time Temperature Precipitation Wind Pressure Humidity
    00:00 +36°C° 0 mm 5 mps 730 mmHg 43%
    01:00 +36°C° 0 mm 4 mps 730 mmHg 43%
    02:00 +35°C° 0 mm 4 mps 730 mmHg 43%
    03:00 +35°C° 0 mm 3 mps 730 mmHg 43%
    04:00 +34°C° 0 mm 4 mps 730 mmHg 46%
    05:00 +34°C° 0 mm 4 mps 731 mmHg 49%
    06:00 +33°C° 0 mm 6 mps 731 mmHg 55%
    07:00 +34°C° 0 mm 6 mps 731 mmHg 52%
    08:00 +35°C° 0 mm 6 mps 731 mmHg 50%
    09:00 +36°C° 0 mm 6 mps 732 mmHg 47%
    10:00 +39°C° 0 mm 5 mps 731 mmHg 41%
    11:00 +40°C° 0 mm 5 mps 731 mmHg 36%
    12:00 +42°C° 0 mm 5 mps 731 mmHg 30%
    13:00 +43°C° 0 mm 4 mps 730 mmHg 28%
    14:00 +43°C° 0 mm 3 mps 730 mmHg 26%
    15:00 +44°C° 0 mm 3 mps 729 mmHg 23%
    16:00 +43°C° 0 mm 2 mps 729 mmHg 23%
    17:00 +42°C° 0 mm 2 mps 729 mmHg 23%
    18:00 +42°C° 0 mm 1 mps 729 mmHg 23%
    19:00 +42°C° 0 mm 3 mps 729 mmHg 27%
    20:00 +41°C° 0 mm 4 mps 729 mmHg 31%
    21:00 +40°C° 0 mm 5 mps 729 mmHg 35%
    22:00 +37°C° 0 mm 5 mps 730 mmHg 39%
    23:00 +36°C° 0 mm 6 mps 730 mmHg 43%

    Tomorrow, 28 May, Tuesday

    Time Temperature Precipitation Wind Pressure Humidity
    00:00 +35°C° 0 mm 6 mps 730 mmHg 47%
    01:00 +35°C° 0 mm 6 mps 730 mmHg 48%
    02:00 +35°C° 0 mm 5 mps 729 mmHg 48%
    03:00 +34°C° 0 mm 5 mps 729 mmHg 49%
    04:00 +34°C° 0.1 mm 5 mps 730 mmHg 52%
    05:00 +33°C° 0.1 mm 6 mps 730 mmHg 56%
    06:00 +32°C° 0.1 mm 6 mps 730 mmHg 59%
    07:00 +33°C° 0 mm 6 mps 731 mmHg 57%
    08:00 +34°C° 0 mm 7 mps 732 mmHg 55%
    09:00 +35°C° 0 mm 7 mps 732 mmHg 54%
    10:00 +36°C° 0 mm 7 mps 732 mmHg 49%
    11:00 +39°C° 0 mm 7 mps 732 mmHg 45%
    12:00 +40°C° 0 mm 7 mps 732 mmHg 41%
    13:00 +41°C° 0 mm 6 mps 731 mmHg 38%
    14:00 +41°C° 0 mm 6 mps 731 mmHg 36%
    15:00 +42°C° 0 mm 5 mps 730 mmHg 33%
    16:00 +42°C° 0 mm 5 mps 730 mmHg 33%
    17:00 +42°C° 0 mm 5 mps 730 mmHg 34%
    18:00 +41°C° 0 mm 6 mps 729 mmHg 34%
    19:00 +40°C° 0 mm 6 mps 730 mmHg 37%
    20:00 +40°C° 0 mm 6 mps 730 mmHg 40%
    21:00 +39°C° 0 mm 6 mps 730 mmHg 43%
    22:00 +38°C° 0 mm 6 mps 730 mmHg 45%
    23:00 +38°C° 0 mm 6 mps 730 mmHg 47%

    Day after tomorrow, 29 May, Wednesday

    Time Temperature Precipitation Wind Pressure Humidity
    00:00 +36°C° 0 mm 6 mps 730 mmHg 49%
    01:00 +35°C° 0 mm 6 mps 730 mmHg 52%
    02:00 +35°C° 0 mm 6 mps 730 mmHg 55%
    03:00 +34°C° 0 mm 5 mps 729 mmHg 58%
    04:00 +34°C° 0 mm 5 mps 730 mmHg 59%
    05:00 +33°C° 0 mm 5 mps 730 mmHg 60%
    06:00 +33°C° 0 mm 6 mps 731 mmHg 61%
    07:00 +34°C° 0 mm 6 mps 731 mmHg 57%
    08:00 +35°C° 0 mm 7 mps 732 mmHg 54%
    09:00 +36°C° 0 mm 7 mps 732 mmHg 51%
    10:00 +38°C° 0 mm 7 mps 732 mmHg 46%
    11:00 +40°C° 0 mm 7 mps 731 mmHg 42%
    12:00 +41°C° 0 mm 7 mps 731 mmHg 38%
    13:00 +43°C° 0 mm 7 mps 730 mmHg 35%
    14:00 +44°C° 0 mm 6 mps 729 mmHg 32%
    15:00 +44°C° 0 mm 6 mps 729 mmHg 30%
    16:00 +43°C° 0 mm 5 mps 728 mmHg 30%
    17:00 +42°C° 0 mm 5 mps 728 mmHg 31%
    18:00 +42°C° 0 mm 5 mps 728 mmHg 32%
    19:00 +41°C° 0 mm 6 mps 729 mmHg 36%
    20:00 +40°C° 0 mm 6 mps 729 mmHg 40%
    21:00 +39°C° 0 mm 7 mps 730 mmHg 44%
    22:00 +38°C° 0 mm 7 mps 729 mmHg 47%
    23:00 +36°C° 0 mm 7 mps 729 mmHg 49%

    30 May, Thursday

    Time Temperature Precipitation Wind Pressure Humidity
    00:00 +36°C° 0 mm 7 mps 729 mmHg 51%
    01:00 +35°C° 0 mm 7 mps 729 mmHg 53%
    02:00 +35°C° 0 mm 6 mps 729 mmHg 55%
    03:00 +34°C° 0 mm 6 mps 729 mmHg 57%
    04:00 +34°C° 0 mm 6 mps 730 mmHg 58%
    05:00 +33°C° 0 mm 6 mps 730 mmHg 58%
    06:00 +33°C° 0 mm 7 mps 730 mmHg 58%
    07:00 +33°C° 0 mm 7 mps 731 mmHg 58%
    08:00 +34°C° 0 mm 8 mps 732 mmHg 57%
    09:00 +34°C° 0 mm 8 mps 732 mmHg 56%
    10:00 +35°C° 0 mm 8 mps 732 mmHg 51%
    11:00 +38°C° 0 mm 7 mps 732 mmHg 46%
    12:00 +39°C° 0 mm 7 mps 731 mmHg 42%
    13:00 +40°C° 0 mm 6 mps 731 mmHg 38%
    14:00 +41°C° 0 mm 6 mps 730 mmHg 35%
    15:00 +42°C° 0 mm 5 mps 729 mmHg 32%
    16:00 +41°C° 0 mm 5 mps 729 mmHg 33%
    17:00 +41°C° 0 mm 5 mps 729 mmHg 35%
    18:00 +40°C° 0 mm 4 mps 729 mmHg 36%
    19:00 +39°C° 0 mm 5 mps 730 mmHg 40%
    20:00 +39°C° 0 mm 5 mps 731 mmHg 44%
    21:00 +38°C° 0 mm 6 mps 731 mmHg 47%
    22:00 +36°C° 0 mm 6 mps 731 mmHg 49%
    23:00 +36°C° 0 mm 6 mps 731 mmHg 50%

    31 May, Friday

    Time Temperature Precipitation Wind Pressure Humidity
    00:00 +35°C° 0 mm 6 mps 731 mmHg 52%
    01:00 +34°C° 0 mm 6 mps 731 mmHg 53%
    02:00 +34°C° 0 mm 6 mps 730 mmHg 55%
    03:00 +33°C° 0 mm 5 mps 730 mmHg 57%
    04:00 +33°C° 0 mm 6 mps 730 mmHg 59%
    05:00 +33°C° 0 mm 6 mps 730 mmHg 61%
    06:00 +32°C° 0 mm 6 mps 731 mmHg 63%
    07:00 +33°C° 0 mm 6 mps 731 mmHg 62%
    08:00 +33°C° 0 mm 7 mps 731 mmHg 60%
    09:00 +34°C° 0 mm 7 mps 732 mmHg 58%
    10:00 +35°C° 0 mm 6 mps 732 mmHg 54%
    11:00 +36°C° 0 mm 4 mps 732 mmHg 49%
    12:00 +37°C° 0 mm 3 mps 731 mmHg 45%
    13:00 +38°C° 0 mm 3 mps 731 mmHg 42%
    14:00 +38°C° 0 mm 3 mps 730 mmHg 40%
    15:00 +40°C° 0 mm 4 mps 730 mmHg 37%
    16:00 +40°C° 0 mm 4 mps 729 mmHg 38%
    17:00 +38°C° 0 mm 4 mps 729 mmHg 39%
    18:00 +38°C° 0 mm 4 mps 729 mmHg 39%
    19:00 +37°C° 0 mm 4 mps 730 mmHg 42%
    20:00 +37°C° 0 mm 4 mps 731 mmHg 45%
    21:00 +36°C° 0 mm 4 mps 731 mmHg 48%
    22:00 +35°C° 0 mm 5 mps 731 mmHg 49%
    23:00 +35°C° 0 mm 5 mps 731 mmHg 49%

    1 June, Saturday

    Time Temperature Precipitation Wind Pressure Humidity
    00:00 +35°C° 0 mm 6 mps 731 mmHg 50%
    01:00 +34°C° 0 mm 6 mps 730 mmHg 51%
    02:00 +34°C° 0 mm 6 mps 730 mmHg 51%
    03:00 +34°C° 0 mm 6 mps 730 mmHg 51%
    04:00 +33°C° 0 mm 6 mps 730 mmHg 54%
    05:00 +33°C° 0 mm 6 mps 730 mmHg 57%
    06:00 +32°C° 0 mm 6 mps 730 mmHg 60%
    07:00 +33°C° 0 mm 6 mps 731 mmHg 57%
    08:00 +34°C° 0 mm 6 mps 731 mmHg 54%
    09:00 +35°C° 0 mm 5 mps 732 mmHg 51%
    10:00 +37°C° 0 mm 5 mps 732 mmHg 46%
    11:00 +38°C° 0 mm 4 mps 731 mmHg 41%
    12:00 +40°C° 0 mm 4 mps 731 mmHg 36%
    13:00 +40°C° 0 mm 3 mps 730 mmHg 33%
    14:00 +41°C° 0 mm 2 mps 730 mmHg 31%
    15:00 +39°C° 0 mm 0 mps 729 mmHg 29%
    16:00 +41°C° 0.4 mm 1 mps 729 mmHg 31%
    17:00 +40°C° 0.4 mm 1 mps 729 mmHg 33%
    18:00 +39°C° 0.4 mm 1 mps 729 mmHg 34%
    19:00 +39°C° 0 mm 2 mps 730 mmHg 36%
    20:00 +39°C° 0 mm 3 mps 730 mmHg 37%
    21:00 +38°C° 0 mm 4 mps 730 mmHg 39%
    22:00 +37°C° 0.2 mm 5 mps 730 mmHg 42%
    23:00 +36°C° 0.2 mm 6 mps 731 mmHg 46%
    Show more